Change the Weather History Date:

Monday, August 26, 2013

  Actual Average Record
Temperature  
Mean Temperature 74 °F -  
Max Temperature 80 °F 88 °F 100 °F (1985)
Min Temperature 70 °F 56 °F 40 °F (1960)
Cooling Degree Days 10    
Growing Degree Days 24 (Base 50)    
Moisture  
Dew Point 51 °F    
Average Humidity 44    
Maximum Humidity 53    
Minimum Humidity 34    
Precipitation  
Precipitation 0.00 in - - ()
Sea Level Pressure  
Sea Level Pressure 29.96 in    
Wind  
Wind Speed 12 mph (SSE)    
Max Wind Speed 17 mph    
Max Gust Speed 23 mph    
Visibility 10 miles    
Events      
Averages and records for this station are not official NWS values.
T = Trace of Precipitation, MM = Missing Value Source: NWS Daily Summary

Daily Weather History Graph

Daily Weather History Graph

Search for Another Location

Airport or City:

Trip Planner

Search our weather history database for the weather conditions in past years. The results will help you decide how hot, cold, wet, or windy it might be!

Date:

Astronomy

Aug. 26, 2013 Rise Set
Actual Time 6:48 AM MDT 8:09 PM MDT
Civil Twilight 6:20 AM MDT 8:38 PM MDT
Nautical Twilight 5:45 AM MDT 9:12 PM MDT
Astronomical Twilight 5:09 AM MDT 9:49 PM MDT
Moon 11:18 PM MDT (8/26) 12:58 PM MDT (8/26)
Length of Visible Light 14h 18m
Length of Day
13h 21m
Waning Gibbous, 66% of the Moon is Illuminated
Aug 26
Waning Gibbous
Aug 28
Last Quarter
Sep 5
New
Sep 12
First Quarter
Sep 19
Full

Hourly Weather History & Observations

Time (MDT) Temp. Dew Point Humidity Pressure Visibility Wind Dir Wind Speed Gust Speed Precip Events Conditions
12:53 AM 75.0 °F 51.1 °F 43% 29.90 in 10.0 mi South 17.3 mph 23.0 mph N/A   Partly Cloudy
1:53 AM 73.9 °F 51.1 °F 45% 29.90 in 10.0 mi SSE 9.2 mph 18.4 mph N/A   Clear
2:53 AM 73.0 °F 52.0 °F 48% 29.92 in 10.0 mi South 9.2 mph - N/A   Mostly Cloudy
3:53 AM 72.0 °F 51.1 °F 48% 29.93 in 10.0 mi SSE 11.5 mph - N/A   Scattered Clouds
4:53 AM 72.0 °F 51.1 °F 48% 29.94 in 10.0 mi SSE 11.5 mph - N/A   Clear
5:53 AM 71.1 °F 50.0 °F 47% 29.95 in 10.0 mi South 9.2 mph - N/A   Partly Cloudy
6:53 AM 70.0 °F 51.1 °F 51% 29.96 in 10.0 mi SSE 9.2 mph - N/A   Mostly Cloudy
7:53 AM 71.1 °F 50.0 °F 47% 29.99 in 10.0 mi South 8.1 mph - N/A   Clear
8:53 AM 72.0 °F 50.0 °F 46% 29.99 in 10.0 mi SSE 10.4 mph - N/A   Scattered Clouds
9:53 AM 73.0 °F 51.1 °F 46% 30.01 in 10.0 mi South 10.4 mph - N/A   Partly Cloudy
10:53 AM 75.9 °F 51.1 °F 42% 30.01 in 10.0 mi SSE 8.1 mph - N/A   Clear
11:53 AM 78.1 °F 48.9 °F 36% 30.01 in 10.0 mi South 13.8 mph - N/A   Clear
12:53 PM 78.1 °F 48.0 °F 35% 29.99 in 10.0 mi South 17.3 mph - N/A   Clear
1:53 PM 79.0 °F 48.0 °F 34% 29.99 in 10.0 mi South 15.0 mph 21.9 mph N/A   Scattered Clouds
2:53 PM 78.1 °F 48.0 °F 35% 29.99 in 10.0 mi South 13.8 mph - N/A   Clear
3:53 PM 78.1 °F 50.0 °F 37% 29.97 in 10.0 mi South 15.0 mph - N/A   Partly Cloudy
4:53 PM 77.0 °F 52.0 °F 42% 29.97 in 10.0 mi South 12.7 mph - N/A   Scattered Clouds
5:53 PM 77.0 °F 51.1 °F 40% 29.96 in 10.0 mi South 12.7 mph - N/A   Partly Cloudy
6:53 PM 75.9 °F 51.1 °F 42% 29.95 in 10.0 mi SE 11.5 mph - N/A   Clear
7:53 PM 73.9 °F 51.1 °F 45% 29.94 in 10.0 mi SSW 8.1 mph - N/A   Clear
8:53 PM 73.0 °F 52.0 °F 48% 29.96 in 10.0 mi SE 4.6 mph - N/A   Clear
9:53 PM 72.0 °F 52.0 °F 49% 29.95 in 10.0 mi East 6.9 mph - N/A   Clear
10:53 PM 71.1 °F 52.0 °F 51% 29.95 in 10.0 mi SSE 5.8 mph - N/A   Clear
11:53 PM 70.0 °F 52.0 °F 53% 29.96 in 10.0 mi Calm Calm - N/A   Clear